NASA926 KXMR-KTTS

Flight info

Callsign NASA926
Flight time 0h -6m
Altitude 60000
Route ATLAS PLUMP JORAY STAY1/0100 HIBAC APOLO
Aircraft WB57/M-SFGHIRWXY/S

Departure

Time 2026-05-08 22:18
Airport Cape Canaveral SFS Skid Strip (KXMR)

Arrival

Time 2026-05-08 22:11
Airport Space Florida Launch and Landing Facility (KTTS)
Time Latitude Longitude Altitude Speed Heading
2026-05-08 22:11 28.47758 -80.57594 13 ft 0 kts 201°
2026-05-08 22:17 28.47757 -80.57594 13 ft 2 kts 201°
2026-05-08 22:17 28.47605 -80.57692 14 ft 43 kts 219°
2026-05-08 22:17 28.47485 -80.57729 14 ft 5 kts 123°
2026-05-08 22:18 28.47349 -80.57520 15 ft 103 kts 127°
2026-05-08 22:18 28.46672 -80.56532 709 ft 197 kts 129°
2026-05-08 22:18 28.45681 -80.55455 3065 ft 206 kts 144°
2026-05-08 22:18 28.44540 -80.54545 5196 ft 223 kts 144°
2026-05-08 22:19 28.43203 -80.53687 7422 ft 228 kts 170°
2026-05-08 22:19 28.41654 -80.53490 10109 ft 233 kts 170°
2026-05-08 22:19 28.40291 -80.52321 12504 ft 256 kts 138°
2026-05-08 22:19 28.38789 -80.51203 14809 ft 258 kts 164°
2026-05-08 22:20 28.37075 -80.50365 17018 ft 277 kts 158°
2026-05-08 22:20 28.35379 -80.49172 19128 ft 294 kts 154°
2026-05-08 22:20 28.33559 -80.48025 21047 ft 305 kts 161°
2026-05-08 22:20 28.31652 -80.46859 22964 ft 323 kts 157°
2026-05-08 22:21 28.29683 -80.45489 24629 ft 337 kts 157°
2026-05-08 22:21 28.27629 -80.44146 26299 ft 345 kts 159°
2026-05-08 22:21 28.25613 -80.42547 27885 ft 370 kts 142°
2026-05-08 22:21 28.24127 -80.40087 29554 ft 385 kts 125°
2026-05-08 22:22 28.22980 -80.37376 31191 ft 388 kts 117°
2026-05-08 22:22 28.22042 -80.34485 32717 ft 390 kts 112°
2026-05-08 22:22 28.21128 -80.31601 34162 ft 389 kts 115°
2026-05-08 22:22 28.20083 -80.28769 35417 ft 388 kts 117°
2026-05-08 22:23 28.19027 -80.25952 36639 ft 388 kts 115°
2026-05-08 22:23 28.18010 -80.23104 37792 ft 390 kts 114°
2026-05-08 22:23 28.16982 -80.20212 38614 ft 400 kts 114°
2026-05-08 22:23 28.15939 -80.17288 39537 ft 400 kts 115°
2026-05-08 22:24 28.14875 -80.14372 40488 ft 398 kts 115°
2026-05-08 22:24 28.13834 -80.11466 41483 ft 395 kts 115°
2026-05-08 22:24 28.12796 -80.08597 42528 ft 391 kts 115°
2026-05-08 22:24 28.11778 -80.05768 43630 ft 384 kts 116°
2026-05-08 22:25 28.10914 -80.02934 44735 ft 379 kts 104°
2026-05-08 22:25 28.10609 -80.00045 45643 ft 370 kts 90°
2026-05-08 22:25 28.10705 -79.97183 46559 ft 358 kts 84°
2026-05-08 22:25 28.10880 -79.94415 47472 ft 345 kts 83°
2026-05-08 22:26 28.11098 -79.91768 48328 ft 334 kts 80°
2026-05-08 22:26 28.11651 -79.89215 48686 ft 336 kts 63°
2026-05-08 22:26 28.12738 -79.86843 48906 ft 341 kts 48°
2026-05-08 22:26 28.14273 -79.84790 49145 ft 342 kts 33°
2026-05-08 22:27 28.16113 -79.83088 49385 ft 346 kts 26°
2026-05-08 22:27 28.18198 -79.81732 49642 ft 345 kts 14°
2026-05-08 22:27 28.20416 -79.80797 49892 ft 344 kts
2026-05-08 22:27 28.22770 -79.80341 50156 ft 346 kts 357°
2026-05-08 22:28 28.25197 -79.79922 50401 ft 358 kts 360°
2026-05-08 22:28 28.27674 -79.79284 50664 ft 373 kts
2026-05-08 22:28 28.30201 -79.78490 50922 ft 380 kts
2026-05-08 22:28 28.32697 -79.77799 51169 ft 386 kts
2026-05-08 22:29 28.35330 -79.77114 51563 ft 387 kts
2026-05-08 22:29 28.37935 -79.76408 52160 ft 384 kts
2026-05-08 22:29 28.40524 -79.75694 52748 ft 380 kts
2026-05-08 22:29 28.43082 -79.74987 53330 ft 375 kts
2026-05-08 22:30 28.45603 -79.74310 53906 ft 371 kts
2026-05-08 22:30 28.48105 -79.73623 54483 ft 366 kts
2026-05-08 22:30 28.50557 -79.72958 55036 ft 361 kts
2026-05-08 22:30 28.52981 -79.72289 55592 ft 356 kts
2026-05-08 22:31 28.55405 -79.71631 56159 ft 350 kts
2026-05-08 22:31 28.57733 -79.70991 56700 ft 345 kts
2026-05-08 22:31 28.60055 -79.70358 57256 ft 338 kts
2026-05-08 22:31 28.62329 -79.69734 57798 ft 332 kts
2026-05-08 22:32 28.64576 -79.69123 58137 ft 332 kts
2026-05-08 22:32 28.66830 -79.68513 58461 ft 334 kts
2026-05-08 22:32 28.69091 -79.67887 58788 ft 334 kts
2026-05-08 22:32 28.71207 -79.67312 59103 ft 335 kts
2026-05-08 22:33 28.73473 -79.66682 59434 ft 335 kts
2026-05-08 22:33 28.75762 -79.66064 59770 ft 335 kts
2026-05-08 22:33 28.78011 -79.65437 60101 ft 334 kts
2026-05-08 22:33 28.80277 -79.64834 60431 ft 334 kts
2026-05-08 22:34 28.82534 -79.64195 60746 ft 334 kts
2026-05-08 22:34 28.84802 -79.63580 60966 ft 337 kts
2026-05-08 22:34 28.87090 -79.62947 61187 ft 340 kts
2026-05-08 22:34 28.89437 -79.62307 61422 ft 343 kts
2026-05-08 22:35 28.91795 -79.61653 61640 ft 346 kts
2026-05-08 22:35 28.94140 -79.61009 61878 ft 347 kts
2026-05-08 22:35 28.96502 -79.60358 62106 ft 350 kts
2026-05-08 22:35 28.98882 -79.59701 62341 ft 352 kts
2026-05-08 22:36 29.01265 -79.59046 62569 ft 354 kts
2026-05-08 22:36 29.03675 -79.58378 62707 ft 359 kts
2026-05-08 22:36 29.06215 -79.57701 62175 ft 387 kts
2026-05-08 22:36 29.08908 -79.56954 61774 ft 410 kts
2026-05-08 22:37 29.11743 -79.56055 61276 ft 439 kts 11°
2026-05-08 22:37 29.14655 -79.54660 60770 ft 467 kts 18°
2026-05-08 22:37 29.17539 -79.52738 60550 ft 489 kts 26°
2026-05-08 22:38 29.22564 -79.47715 60384 ft 474 kts 42°
2026-05-08 22:38 29.24577 -79.44704 60161 ft 477 kts 51°
2026-05-08 22:38 29.26253 -79.41404 59941 ft 480 kts 59°
2026-05-08 22:39 29.28400 -79.34154 60016 ft 486 kts 76°
2026-05-08 22:39 29.29423 -79.26447 60012 ft 494 kts 81°
2026-05-08 22:40 29.30255 -79.18558 60018 ft 500 kts 82°
2026-05-08 22:40 29.31065 -79.10591 60014 ft 505 kts 82°
2026-05-08 22:41 29.31744 -79.03898 60012 ft 508 kts 82°
2026-05-08 22:41 29.33372 -78.96104 60011 ft 498 kts 64°
2026-05-08 22:41 29.34917 -78.92570 60012 ft 490 kts 53°
2026-05-08 22:42 29.36878 -78.89425 60015 ft 481 kts 43°
2026-05-08 22:42 29.41810 -78.84526 60014 ft 460 kts 23°
2026-05-08 22:42 29.44628 -78.82887 60016 ft 447 kts 13°
2026-05-08 22:43 29.47566 -78.81849 60018 ft 434 kts
2026-05-08 22:43 29.50525 -78.81417 60018 ft 421 kts 352°
2026-05-08 22:43 29.53401 -78.81595 60023 ft 408 kts 342°
2026-05-08 22:43 29.56123 -78.82352 60014 ft 395 kts 332°
2026-05-08 22:44 29.58585 -78.83651 60013 ft 383 kts 321°
2026-05-08 22:44 29.60687 -78.85475 60019 ft 372 kts 310°
2026-05-08 22:44 29.62356 -78.87663 60023 ft 364 kts 300°
2026-05-08 22:45 29.64314 -78.92909 60018 ft 356 kts 279°
2026-05-08 22:45 29.64192 -78.98553 60016 ft 358 kts 259°
2026-05-08 22:46 29.62007 -79.03731 60014 ft 370 kts 238°
2026-05-08 22:46 29.58059 -79.07629 60026 ft 389 kts 218°
2026-05-08 22:47 29.53191 -79.10471 60015 ft 390 kts 216°
2026-05-08 22:47 29.48421 -79.13352 60010 ft 389 kts 216°
2026-05-08 22:48 29.44036 -79.16778 60000 ft 372 kts 232°
2026-05-08 22:48 29.40806 -79.21314 59995 ft 366 kts 238°
2026-05-08 22:49 29.37327 -79.25653 59995 ft 373 kts 229°
2026-05-08 22:49 29.31753 -79.31787 59996 ft 370 kts 232°
2026-05-08 22:50 29.28070 -79.35914 60002 ft 370 kts 231°
2026-05-08 22:50 29.24382 -79.40048 59998 ft 370 kts 231°
2026-05-08 22:51 29.20700 -79.44175 59990 ft 370 kts 231°
2026-05-08 22:51 29.17021 -79.48290 59992 ft 370 kts 231°
2026-05-08 22:52 29.13341 -79.52408 59998 ft 369 kts 232°
2026-05-08 22:52 29.10185 -79.56903 59569 ft 363 kts 243°
2026-05-08 22:53 29.08912 -79.59415 58810 ft 365 kts 246°
2026-05-08 22:53 29.07853 -79.62051 58074 ft 366 kts 252°
2026-05-08 22:53 29.07007 -79.64718 57341 ft 366 kts 255°
2026-05-08 22:53 29.06178 -79.67480 56596 ft 368 kts 254°
2026-05-08 22:54 29.05329 -79.70243 55844 ft 368 kts 254°
2026-05-08 22:54 29.04495 -79.72968 55112 ft 368 kts 254°
2026-05-08 22:54 29.03659 -79.75728 54359 ft 367 kts 254°
2026-05-08 22:54 29.02822 -79.78481 53605 ft 366 kts 254°
2026-05-08 22:55 29.01989 -79.81214 52848 ft 364 kts 254°
2026-05-08 22:55 29.01157 -79.83935 51941 ft 364 kts 254°
2026-05-08 22:55 29.00319 -79.86694 50791 ft 370 kts 254°
2026-05-08 22:55 28.99455 -79.89518 49611 ft 374 kts 253°
2026-05-08 22:56 28.98595 -79.92331 48452 ft 375 kts 254°
2026-05-08 22:56 28.97731 -79.95145 47287 ft 374 kts 253°
2026-05-08 22:56 28.96876 -79.97944 46125 ft 372 kts 254°
2026-05-08 22:56 28.96021 -80.00724 44948 ft 369 kts 253°
2026-05-08 22:57 28.95178 -80.03480 43573 ft 365 kts 254°
2026-05-08 22:57 28.94342 -80.06194 42204 ft 360 kts 254°
2026-05-08 22:57 28.93532 -80.08835 40939 ft 355 kts 255°
2026-05-08 22:57 28.92721 -80.11468 39731 ft 350 kts 254°
2026-05-08 22:58 28.91919 -80.14075 38569 ft 345 kts 255°
2026-05-08 22:58 28.91130 -80.16639 37247 ft 340 kts 255°
2026-05-08 22:58 28.90351 -80.19159 36009 ft 334 kts 255°
2026-05-08 22:58 28.90212 -80.19616 35790 ft 333 kts 255°
2026-05-08 22:59 28.89465 -80.22053 34649 ft 341 kts 255°
2026-05-08 22:59 28.88654 -80.24624 33465 ft 346 kts 254°
2026-05-08 22:59 28.87816 -80.27222 32216 ft 348 kts 253°
2026-05-08 22:59 28.86956 -80.29804 31030 ft 349 kts 252°
2026-05-08 23:00 28.86072 -80.32382 29856 ft 348 kts 252°
2026-05-08 23:00 28.85174 -80.34945 28545 ft 347 kts 251°
2026-05-08 23:00 28.84261 -80.37457 27307 ft 346 kts 250°
2026-05-08 23:00 28.83321 -80.39980 26102 ft 344 kts 250°
2026-05-08 23:01 28.82368 -80.42477 24952 ft 343 kts 249°
2026-05-08 23:01 28.81490 -80.45033 24002 ft 334 kts 260°
2026-05-08 23:01 28.81356 -80.47706 23821 ft 309 kts 269°
2026-05-08 23:01 28.81394 -80.49619 23340 ft 323 kts 276°
2026-05-08 23:02 28.81859 -80.52195 22794 ft 333 kts 279°
2026-05-08 23:02 28.82108 -80.54786 22281 ft 325 kts 274°
2026-05-08 23:02 28.82410 -80.57304 21776 ft 319 kts 281°
2026-05-08 23:02 28.82858 -80.59767 21281 ft 314 kts 279°
2026-05-08 23:03 28.83045 -80.61440 20944 ft 312 kts 276°
2026-05-08 23:03 28.83469 -80.64746 20059 ft 313 kts 280°
2026-05-08 23:03 28.83778 -80.66757 19122 ft 313 kts 278°
2026-05-08 23:03 28.84031 -80.69124 17962 ft 274 kts 274°
2026-05-08 23:04 28.83805 -80.71089 16695 ft 236 kts 258°
2026-05-08 23:04 28.83354 -80.72797 15479 ft 217 kts 251°
2026-05-08 23:04 28.82589 -80.74238 14143 ft 205 kts 240°
2026-05-08 23:04 28.81790 -80.75577 12590 ft 203 kts 239°
2026-05-08 23:05 28.80974 -80.76879 11104 ft 200 kts 237°
2026-05-08 23:05 28.80434 -80.77727 10162 ft 198 kts 238°
2026-05-08 23:05 28.79398 -80.79406 8485 ft 186 kts 252°
2026-05-08 23:05 28.79609 -80.80768 7685 ft 184 kts 303°
2026-05-08 23:06 28.80669 -80.81769 7105 ft 219 kts 321°
2026-05-08 23:06 28.81526 -80.82506 6818 ft 242 kts 319°
2026-05-08 23:06 28.83498 -80.84082 6234 ft 274 kts 332°
2026-05-08 23:06 28.85389 -80.84315 5820 ft 286 kts 11°
2026-05-08 23:07 28.87112 -80.83167 5443 ft 292 kts 43°
2026-05-08 23:07 28.88395 -80.81383 5095 ft 291 kts 51°
2026-05-08 23:07 28.89671 -80.79587 4752 ft 291 kts 50°
2026-05-08 23:07 28.90878 -80.77728 4390 ft 291 kts 56°
2026-05-08 23:08 28.91508 -80.75581 4050 ft 291 kts 89°
2026-05-08 23:08 28.90873 -80.73428 3774 ft 286 kts 127°
2026-05-08 23:08 28.89475 -80.71851 3527 ft 280 kts 142°
2026-05-08 23:08 28.88045 -80.70376 3484 ft 283 kts 140°
2026-05-08 23:09 28.86461 -80.68976 3486 ft 296 kts 149°
2026-05-08 23:09 28.84759 -80.67703 3489 ft 282 kts 147°
2026-05-08 23:09 28.83193 -80.66396 3481 ft 278 kts 146°
2026-05-08 23:09 28.81573 -80.65162 3482 ft 278 kts 149°
2026-05-08 23:10 28.80509 -80.64346 3479 ft 278 kts 147°
2026-05-08 23:10 28.78937 -80.63062 3480 ft 278 kts 147°
2026-05-08 23:10 28.77322 -80.61831 3478 ft 278 kts 149°
2026-05-08 23:10 28.75210 -80.60155 3478 ft 279 kts 147°
2026-05-08 23:11 28.73603 -80.58916 3474 ft 278 kts 149°
2026-05-08 23:11 28.72516 -80.58083 3470 ft 280 kts 147°
2026-05-08 23:11 28.70924 -80.56817 3489 ft 279 kts 149°
2026-05-08 23:11 28.69122 -80.56076 3490 ft 275 kts 174°
2026-05-08 23:12 28.67247 -80.55820 3492 ft 276 kts 172°
2026-05-08 23:12 28.65365 -80.55320 3490 ft 277 kts 170°
2026-05-08 23:12 28.63456 -80.54988 3488 ft 277 kts 175°
2026-05-08 23:12 28.61543 -80.54635 3487 ft 279 kts 171°
2026-05-08 23:13 28.59635 -80.54218 3489 ft 279 kts 173°
2026-05-08 23:13 28.57685 -80.53925 3253 ft 283 kts 180°
2026-05-08 23:13 28.55901 -80.54431 2988 ft 283 kts 214°
2026-05-08 23:13 28.54706 -80.56160 2719 ft 276 kts 248°
2026-05-08 23:14 28.54537 -80.58167 2456 ft 256 kts 281°
2026-05-08 23:14 28.55439 -80.59847 2187 ft 250 kts 316°
2026-05-08 23:14 28.56948 -80.60761 1944 ft 245 kts 339°
2026-05-08 23:14 28.58635 -80.61006 1690 ft 242 kts 355°
2026-05-08 23:15 28.60294 -80.61209 1568 ft 236 kts 349°
2026-05-08 23:15 28.61904 -80.61434 1527 ft 233 kts 354°
2026-05-08 23:15 28.63561 -80.61601 1509 ft 242 kts 352°
2026-05-08 23:15 28.65230 -80.61836 1502 ft 245 kts 349°
2026-05-08 23:16 28.66796 -80.62545 1490 ft 243 kts 325°
2026-05-08 23:16 28.68215 -80.63590 1488 ft 244 kts 330°
2026-05-08 23:16 28.69724 -80.64484 1498 ft 244 kts 329°
2026-05-08 23:16 28.71161 -80.65531 1501 ft 244 kts 326°
2026-05-08 23:17 28.72510 -80.66519 1499 ft 231 kts 324°
2026-05-08 23:17 28.73758 -80.67638 1491 ft 220 kts 311°
2026-05-08 23:17 28.74218 -80.69206 1482 ft 211 kts 262°
2026-05-08 23:17 28.73574 -80.70631 1489 ft 205 kts 232°
2026-05-08 23:18 28.72769 -80.71939 1490 ft 190 kts 237°
2026-05-08 23:18 28.72081 -80.72995 1483 ft 138 kts 230°
2026-05-08 23:18 28.71530 -80.73806 1481 ft 126 kts 236°
2026-05-08 23:18 28.71000 -80.74606 1488 ft 127 kts 229°
2026-05-08 23:19 28.70212 -80.75055 1417 ft 136 kts 174°
2026-05-08 23:19 28.69388 -80.74516 1289 ft 142 kts 149°
2026-05-08 23:19 28.68480 -80.74052 1114 ft 143 kts 160°
2026-05-08 23:19 28.67638 -80.73453 939 ft 145 kts 142°
2026-05-08 23:20 28.66802 -80.72837 780 ft 143 kts 152°
2026-05-08 23:20 28.65921 -80.72351 620 ft 138 kts 152°
2026-05-08 23:20 28.65106 -80.71831 502 ft 128 kts 147°
2026-05-08 23:20 28.64365 -80.71326 279 ft 124 kts 149°
2026-05-08 23:21 28.63845 -80.70977 169 ft 119 kts 149°
2026-05-08 23:21 28.63261 -80.70591 70 ft 115 kts 150°
2026-05-08 23:21 28.62585 -80.70152 19 ft 111 kts 150°
2026-05-08 23:21 28.61937 -80.69729 13 ft 93 kts 150°
2026-05-08 23:22 28.61478 -80.69428 11 ft 64 kts 150°
2026-05-08 23:22 28.61141 -80.69207 13 ft 50 kts 149°
2026-05-08 23:22 28.60848 -80.69016 11 ft 49 kts 151°
2026-05-08 23:22 28.60552 -80.68829 11 ft 48 kts 151°
2026-05-08 23:23 28.60258 -80.68645 13 ft 46 kts 149°
2026-05-08 23:23 28.59989 -80.68460 14 ft 46 kts 149°
2026-05-08 23:23 28.59758 -80.68230 12 ft 45 kts 105°
2026-05-08 23:23 28.59875 -80.68045 12 ft 30 kts 20°
2026-05-08 23:24 28.60021 -80.68019 12 ft 16 kts 62°
2026-05-08 23:24 28.60032 -80.67949 13 ft 0 kts 149°